owner,sensor,date,latitude,longitude,sea_surface_height_above_sea_level,qcFlag 
TCOON,ioos:station:TCOON:057:1,2013-12-09T14:54:00Z,28.4460,-96.3961,3.727,1111122 
TCOON,ioos:station:TCOON:057:1,2013-12-09T15:24:00Z,28.4460,-96.3961,3.729,1111122 
TCOON,ioos:station:TCOON:057:1,2013-12-09T16:48:00Z,28.4460,-96.3961,3.726,1111122 
TCOON,ioos:station:TCOON:057:1,2013-12-09T17:24:00Z,28.4460,-96.3961,3.731,1111122 
TCOON,ioos:station:TCOON:057:1,2013-12-09T18:24:00Z,28.4460,-96.3961,3.724,1111122 
TCOON,ioos:station:TCOON:057:1,2013-12-09T19:24:00Z,28.4460,-96.3961,3.736,1111122 
TCOON,ioos:station:TCOON:057:1,2013-12-09T20:24:00Z,28.4460,-96.3961,3.73,1111122 
TCOON,ioos:station:TCOON:057:1,2013-12-09T21:24:00Z,28.4460,-96.3961,3.722,1111122 
TCOON,ioos:station:TCOON:057:1,2013-12-09T22:24:00Z,28.4460,-96.3961,3.717,1111122 
TCOON,ioos:station:TCOON:057:1,2013-12-09T23:24:00Z,28.4460,-96.3961,3.728,1111122 
TCOON,ioos:station:TCOON:057:1,2013-12-10T00:24:00Z,28.4460,-96.3961,3.738,1111122 
TCOON,ioos:station:TCOON:057:1,2013-12-10T01:24:00Z,28.4460,-96.3961,3.742,1111122 
TCOON,ioos:station:TCOON:057:1,2013-12-10T02:24:00Z,28.4460,-96.3961,3.751,1111122 
TCOON,ioos:station:TCOON:057:1,2013-12-10T03:24:00Z,28.4460,-96.3961,3.763,1111122 
TCOON,ioos:station:TCOON:057:1,2013-12-10T04:24:00Z,28.4460,-96.3961,3.772,1111122 
TCOON,ioos:station:TCOON:057:1,2013-12-10T09:24:00Z,28.4460,-96.3961,3.645,1111122 
TCOON,ioos:station:TCOON:057:1,2013-12-10T10:54:00Z,28.4460,-96.3961,3.631,1111122 
TCOON,ioos:station:TCOON:057:1,2013-12-10T12:24:00Z,28.4460,-96.3961,3.607,1111122 
TCOON,ioos:station:TCOON:057:1,2013-12-10T20:24:00Z,28.4460,-96.3961,3.498,1111122 
TCOON,ioos:station:TCOON:057:1,2013-12-11T01:54:00Z,28.4460,-96.3961,3.561,1111122 
TCOON,ioos:station:TCOON:057:1,2013-12-11T17:54:00Z,28.4460,-96.3961,3.583,1111122 
TCOON,ioos:station:TCOON:057:1,2013-12-11T19:24:00Z,28.4460,-96.3961,3.624,1111122 
TCOON,ioos:station:TCOON:057:1,2013-12-11T21:24:00Z,28.4460,-96.3961,3.66,1111122 
TCOON,ioos:station:TCOON:057:1,2013-12-12T11:24:00Z,28.4460,-96.3961,3.544,1111122 
TCOON,ioos:station:TCOON:057:1,2013-12-12T15:24:00Z,28.4460,-96.3961,3.463,1111122 
TCOON,ioos:station:TCOON:057:1,2013-12-12T16:24:00Z,28.4460,-96.3961,3.478,1111122 
TCOON,ioos:station:TCOON:057:1,2013-12-12T17:24:00Z,28.4460,-96.3961,3.488,1111122 
TCOON,ioos:station:TCOON:057:1,2013-12-12T19:24:00Z,28.4460,-96.3961,3.543,1111122 
TCOON,ioos:station:TCOON:057:1,2013-12-12T21:24:00Z,28.4460,-96.3961,3.598,1111122 
TCOON,ioos:station:TCOON:057:1,2013-12-12T22:24:00Z,28.4460,-96.3961,3.638,1111122 
TCOON,ioos:station:TCOON:057:1,2013-12-12T22:54:00Z,28.4460,-96.3961,3.643,1111122 
TCOON,ioos:station:TCOON:057:1,2013-12-12T23:54:00Z,28.4460,-96.3961,3.625,1111122 
TCOON,ioos:station:TCOON:057:1,2013-12-13T00:54:00Z,28.4460,-96.3961,3.629,1111122 
TCOON,ioos:station:TCOON:057:1,2013-12-13T01:54:00Z,28.4460,-96.3961,3.644,1111122 
TCOON,ioos:station:TCOON:057:1,2013-12-13T02:54:00Z,28.4460,-96.3961,3.658,1111122 
TCOON,ioos:station:TCOON:057:1,2013-12-13T03:54:00Z,28.4460,-96.3961,3.663,1111122 
TCOON,ioos:station:TCOON:057:1,2013-12-13T04:54:00Z,28.4460,-96.3961,3.678,1111122 
TCOON,ioos:station:TCOON:057:1,2013-12-13T06:18:00Z,28.4460,-96.3961,3.692,1111122 
TCOON,ioos:station:TCOON:057:1,2013-12-13T06:48:00Z,28.4460,-96.3961,3.69,1111122 
TCOON,ioos:station:TCOON:057:1,2013-12-13T07:18:00Z,28.4460,-96.3961,3.678,1111122 
TCOON,ioos:station:TCOON:057:1,2013-12-13T07:48:00Z,28.4460,-96.3961,3.67,1111122 
TCOON,ioos:station:TCOON:057:1,2013-12-13T08:18:00Z,28.4460,-96.3961,3.657,1111122 
TCOON,ioos:station:TCOON:057:1,2013-12-13T08:48:00Z,28.4460,-96.3961,3.641,1111122 
TCOON,ioos:station:TCOON:057:1,2013-12-13T09:18:00Z,28.4460,-96.3961,3.634,1111122 
TCOON,ioos:station:TCOON:057:1,2013-12-13T09:48:00Z,28.4460,-96.3961,3.625,1111122 
TCOON,ioos:station:TCOON:057:1,2013-12-13T10:18:00Z,28.4460,-96.3961,3.613,1111122 
TCOON,ioos:station:TCOON:057:1,2013-12-13T10:48:00Z,28.4460,-96.3961,3.598,1111122 
TCOON,ioos:station:TCOON:057:1,2013-12-13T11:18:00Z,28.4460,-96.3961,3.589,1111122 
TCOON,ioos:station:TCOON:057:1,2013-12-13T11:48:00Z,28.4460,-96.3961,3.574,1111122 
TCOON,ioos:station:TCOON:057:1,2013-12-13T12:18:00Z,28.4460,-96.3961,3.563,1111122 
TCOON,ioos:station:TCOON:057:1,2013-12-13T12:48:00Z,28.4460,-96.3961,3.546,1111122 
TCOON,ioos:station:TCOON:057:1,2013-12-13T13:24:00Z,28.4460,-96.3961,3.537,1111122 
TCOON,ioos:station:TCOON:057:1,2013-12-13T13:48:00Z,28.4460,-96.3961,3.533,1111122 
TCOON,ioos:station:TCOON:057:1,2013-12-13T14:24:00Z,28.4460,-96.3961,3.535,1111122 
TCOON,ioos:station:TCOON:057:1,2013-12-13T14:48:00Z,28.4460,-96.3961,3.525,1111122 
TCOON,ioos:station:TCOON:057:1,2013-12-13T15:18:00Z,28.4460,-96.3961,3.525,1111122 
TCOON,ioos:station:TCOON:057:1,2013-12-13T16:48:00Z,28.4460,-96.3961,3.562,1111122 
TCOON,ioos:station:TCOON:057:1,2013-12-13T17:06:00Z,28.4460,-96.3961,3.578,1111122 
TCOON,ioos:station:TCOON:057:1,2013-12-13T17:36:00Z,28.4460,-96.3961,3.596,1111122 
TCOON,ioos:station:TCOON:057:1,2013-12-13T18:06:00Z,28.4460,-96.3961,3.609,1111122 
TCOON,ioos:station:TCOON:057:1,2013-12-13T18:36:00Z,28.4460,-96.3961,3.625,1111122 
TCOON,ioos:station:TCOON:057:1,2013-12-13T19:06:00Z,28.4460,-96.3961,3.641,1111122 
TCOON,ioos:station:TCOON:057:1,2013-12-13T19:36:00Z,28.4460,-96.3961,3.657,1111122 
TCOON,ioos:station:TCOON:057:1,2013-12-13T20:06:00Z,28.4460,-96.3961,3.679,1111122 
TCOON,ioos:station:TCOON:057:1,2013-12-13T20:36:00Z,28.4460,-96.3961,3.698,1111122 
TCOON,ioos:station:TCOON:057:1,2013-12-13T21:06:00Z,28.4460,-96.3961,3.713,1111122 
TCOON,ioos:station:TCOON:057:1,2013-12-13T21:36:00Z,28.4460,-96.3961,3.725,1111122 
TCOON,ioos:station:TCOON:057:1,2013-12-13T22:06:00Z,28.4460,-96.3961,3.741,1111122 
TCOON,ioos:station:TCOON:057:1,2013-12-13T22:36:00Z,28.4460,-96.3961,3.764,1111122 
TCOON,ioos:station:TCOON:057:1,2013-12-13T23:06:00Z,28.4460,-96.3961,3.765,1111122 
TCOON,ioos:station:TCOON:057:1,2013-12-13T23:36:00Z,28.4460,-96.3961,3.773,1111122 
TCOON,ioos:station:TCOON:057:1,2013-12-14T00:06:00Z,28.4460,-96.3961,3.79,1111122 
TCOON,ioos:station:TCOON:057:1,2013-12-14T00:36:00Z,28.4460,-96.3961,3.802,1111122 
TCOON,ioos:station:TCOON:057:1,2013-12-14T01:06:00Z,28.4460,-96.3961,3.808,1111122 
TCOON,ioos:station:TCOON:057:1,2013-12-14T01:36:00Z,28.4460,-96.3961,3.812,1111122 
TCOON,ioos:station:TCOON:057:1,2013-12-14T02:06:00Z,28.4460,-96.3961,3.811,1111122 
TCOON,ioos:station:TCOON:057:1,2013-12-14T02:36:00Z,28.4460,-96.3961,3.806,1111122 
TCOON,ioos:station:TCOON:057:1,2013-12-14T03:06:00Z,28.4460,-96.3961,3.814,1111122 
TCOON,ioos:station:TCOON:057:1,2013-12-14T03:36:00Z,28.4460,-96.3961,3.815,1111122 
TCOON,ioos:station:TCOON:057:1,2013-12-14T04:06:00Z,28.4460,-96.3961,3.816,1111122 
TCOON,ioos:station:TCOON:057:1,2013-12-14T04:36:00Z,28.4460,-96.3961,3.803,1111122 
TCOON,ioos:station:TCOON:057:1,2013-12-14T05:06:00Z,28.4460,-96.3961,3.797,1111122 
TCOON,ioos:station:TCOON:057:1,2013-12-14T06:06:00Z,28.4460,-96.3961,3.783,1111122 
TCOON,ioos:station:TCOON:057:1,2013-12-14T06:36:00Z,28.4460,-96.3961,3.769,1111122 
TCOON,ioos:station:TCOON:057:1,2013-12-14T07:06:00Z,28.4460,-96.3961,3.763,1111122 
TCOON,ioos:station:TCOON:057:1,2013-12-14T07:36:00Z,28.4460,-96.3961,3.757,1111122 
TCOON,ioos:station:TCOON:057:1,2013-12-14T08:06:00Z,28.4460,-96.3961,3.741,1111122 
TCOON,ioos:station:TCOON:057:1,2013-12-14T08:36:00Z,28.4460,-96.3961,3.719,1111122 
TCOON,ioos:station:TCOON:057:1,2013-12-14T09:06:00Z,28.4460,-96.3961,3.702,1111122 
TCOON,ioos:station:TCOON:057:1,2013-12-14T09:36:00Z,28.4460,-96.3961,3.694,1111122 
TCOON,ioos:station:TCOON:057:1,2013-12-14T10:06:00Z,28.4460,-96.3961,3.672,1111122 
TCOON,ioos:station:TCOON:057:1,2013-12-14T10:36:00Z,28.4460,-96.3961,3.653,1111122 
TCOON,ioos:station:TCOON:057:1,2013-12-14T11:06:00Z,28.4460,-96.3961,3.64,1111122 
TCOON,ioos:station:TCOON:057:1,2013-12-14T11:36:00Z,28.4460,-96.3961,3.62,1111122 
TCOON,ioos:station:TCOON:057:1,2013-12-14T12:06:00Z,28.4460,-96.3961,3.607,1111122 
TCOON,ioos:station:TCOON:057:1,2013-12-14T12:36:00Z,28.4460,-96.3961,3.586,1111122 
TCOON,ioos:station:TCOON:057:1,2013-12-14T13:06:00Z,28.4460,-96.3961,3.569,1111122 
TCOON,ioos:station:TCOON:057:1,2013-12-14T13:36:00Z,28.4460,-96.3961,3.562,1111122 
TCOON,ioos:station:TCOON:057:1,2013-12-14T14:06:00Z,28.4460,-96.3961,3.545,1111122 
TCOON,ioos:station:TCOON:057:1,2013-12-14T14:36:00Z,28.4460,-96.3961,3.538,1111122 
TCOON,ioos:station:TCOON:057:1,2013-12-14T15:06:00Z,28.4460,-96.3961,3.529,1111122 
TCOON,ioos:station:TCOON:057:1,2013-12-14T15:36:00Z,28.4460,-96.3961,3.506,1111122 
TCOON,ioos:station:TCOON:057:1,2013-12-14T16:06:00Z,28.4460,-96.3961,3.514,1111122 
TCOON,ioos:station:TCOON:057:1,2013-12-14T16:36:00Z,28.4460,-96.3961,3.53,1111122 
TCOON,ioos:station:TCOON:057:1,2013-12-14T17:06:00Z,28.4460,-96.3961,3.525,1111122 
TCOON,ioos:station:TCOON:057:1,2013-12-14T17:36:00Z,28.4460,-96.3961,3.525,1111122 
TCOON,ioos:station:TCOON:057:1,2013-12-14T18:06:00Z,28.4460,-96.3961,3.551,1111122 
TCOON,ioos:station:TCOON:057:1,2013-12-14T18:36:00Z,28.4460,-96.3961,3.58,1111122 
TCOON,ioos:station:TCOON:057:1,2013-12-14T19:06:00Z,28.4460,-96.3961,3.61,1111122 
TCOON,ioos:station:TCOON:057:1,2013-12-14T19:36:00Z,28.4460,-96.3961,3.632,1111122 
TCOON,ioos:station:TCOON:057:1,2013-12-14T20:12:00Z,28.4460,-96.3961,3.666,1111122 
TCOON,ioos:station:TCOON:057:1,2013-12-14T20:36:00Z,28.4460,-96.3961,3.694,1111122 
TCOON,ioos:station:TCOON:057:1,2013-12-14T21:12:00Z,28.4460,-96.3961,3.715,1111122 
TCOON,ioos:station:TCOON:057:1,2013-12-14T21:42:00Z,28.4460,-96.3961,3.722,1111122 
TCOON,ioos:station:TCOON:057:1,2013-12-14T22:06:00Z,28.4460,-96.3961,3.722,1111122 
TCOON,ioos:station:TCOON:057:1,2013-12-14T22:42:00Z,28.4460,-96.3961,3.725,1111122 
TCOON,ioos:station:TCOON:057:1,2013-12-14T23:12:00Z,28.4460,-96.3961,3.699,1111122 
TCOON,ioos:station:TCOON:057:1,2013-12-14T23:42:00Z,28.4460,-96.3961,3.671,1111122 
TCOON,ioos:station:TCOON:057:1,2013-12-15T00:12:00Z,28.4460,-96.3961,3.656,1111122 
TCOON,ioos:station:TCOON:057:1,2013-12-15T00:42:00Z,28.4460,-96.3961,3.646,1111122 
TCOON,ioos:station:TCOON:057:1,2013-12-15T01:12:00Z,28.4460,-96.3961,3.658,1111122 
TCOON,ioos:station:TCOON:057:1,2013-12-15T01:42:00Z,28.4460,-96.3961,3.635,1111122 
TCOON,ioos:station:TCOON:057:1,2013-12-15T02:12:00Z,28.4460,-96.3961,3.63,1111122 
TCOON,ioos:station:TCOON:057:1,2013-12-15T02:42:00Z,28.4460,-96.3961,3.595,1111122 
TCOON,ioos:station:TCOON:057:1,2013-12-15T03:06:00Z,28.4460,-96.3961,3.581,1111122 
TCOON,ioos:station:TCOON:057:1,2013-12-15T03:42:00Z,28.4460,-96.3961,3.581,1111122 
TCOON,ioos:station:TCOON:057:1,2013-12-15T04:12:00Z,28.4460,-96.3961,3.572,1111122 
TCOON,ioos:station:TCOON:057:1,2013-12-15T04:42:00Z,28.4460,-96.3961,3.545,1111122 
TCOON,ioos:station:TCOON:057:1,2013-12-15T05:12:00Z,28.4460,-96.3961,3.498,1111122 
TCOON,ioos:station:TCOON:057:1,2013-12-15T05:42:00Z,28.4460,-96.3961,3.504,1111122 
TCOON,ioos:station:TCOON:057:1,2013-12-15T06:12:00Z,28.4460,-96.3961,3.511,1111122 
TCOON,ioos:station:TCOON:057:1,2013-12-15T06:42:00Z,28.4460,-96.3961,3.486,1111122 
TCOON,ioos:station:TCOON:057:1,2013-12-15T07:12:00Z,28.4460,-96.3961,3.471,1111122 
TCOON,ioos:station:TCOON:057:1,2013-12-15T07:42:00Z,28.4460,-96.3961,3.452,1111122 
TCOON,ioos:station:TCOON:057:1,2013-12-15T08:12:00Z,28.4460,-96.3961,3.445,1111122 
TCOON,ioos:station:TCOON:057:1,2013-12-15T08:42:00Z,28.4460,-96.3961,3.431,1111122 
TCOON,ioos:station:TCOON:057:1,2013-12-15T09:12:00Z,28.4460,-96.3961,3.406,1111122 
TCOON,ioos:station:TCOON:057:1,2013-12-15T09:42:00Z,28.4460,-96.3961,3.379,1111122 
TCOON,ioos:station:TCOON:057:1,2013-12-15T10:12:00Z,28.4460,-96.3961,3.36,1111122 
TCOON,ioos:station:TCOON:057:1,2013-12-15T10:42:00Z,28.4460,-96.3961,3.347,1111122 
TCOON,ioos:station:TCOON:057:1,2013-12-15T11:12:00Z,28.4460,-96.3961,3.323,1111122 
TCOON,ioos:station:TCOON:057:1,2013-12-15T11:42:00Z,28.4460,-96.3961,3.307,1111122 
TCOON,ioos:station:TCOON:057:1,2013-12-15T12:12:00Z,28.4460,-96.3961,3.312,1111122 
TCOON,ioos:station:TCOON:057:1,2013-12-15T12:42:00Z,28.4460,-96.3961,3.312,1111122 
TCOON,ioos:station:TCOON:057:1,2013-12-15T13:12:00Z,28.4460,-96.3961,3.278,1111122 
TCOON,ioos:station:TCOON:057:1,2013-12-15T13:42:00Z,28.4460,-96.3961,3.255,1111122 
TCOON,ioos:station:TCOON:057:1,2013-12-15T14:12:00Z,28.4460,-96.3961,3.244,1111122 
TCOON,ioos:station:TCOON:057:1,2013-12-15T14:42:00Z,28.4460,-96.3961,3.208,1111122 
TCOON,ioos:station:TCOON:057:1,2013-12-15T15:12:00Z,28.4460,-96.3961,3.182,1111122 
TCOON,ioos:station:TCOON:057:1,2013-12-15T15:48:00Z,28.4460,-96.3961,3.183,1111122 
TCOON,ioos:station:TCOON:057:1,2013-12-15T16:12:00Z,28.4460,-96.3961,3.178,1111122 
TCOON,ioos:station:TCOON:057:1,2013-12-15T16:42:00Z,28.4460,-96.3961,3.182,1111122 
TCOON,ioos:station:TCOON:057:1,2013-12-15T17:12:00Z,28.4460,-96.3961,3.175,1111122 
TCOON,ioos:station:TCOON:057:1,2013-12-15T17:42:00Z,28.4460,-96.3961,3.187,1111122 
TCOON,ioos:station:TCOON:057:1,2013-12-15T18:12:00Z,28.4460,-96.3961,3.193,1111122 
TCOON,ioos:station:TCOON:057:1,2013-12-15T18:42:00Z,28.4460,-96.3961,3.212,1111122 
TCOON,ioos:station:TCOON:057:1,2013-12-15T19:12:00Z,28.4460,-96.3961,3.227,1111122 
TCOON,ioos:station:TCOON:057:1,2013-12-15T19:42:00Z,28.4460,-96.3961,3.252,1111122 
TCOON,ioos:station:TCOON:057:1,2013-12-15T20:12:00Z,28.4460,-96.3961,3.271,1111122 
TCOON,ioos:station:TCOON:057:1,2013-12-15T20:42:00Z,28.4460,-96.3961,3.288,1111122 
TCOON,ioos:station:TCOON:057:1,2013-12-15T21:18:00Z,28.4460,-96.3961,3.321,1111122 
TCOON,ioos:station:TCOON:057:1,2013-12-15T21:42:00Z,28.4460,-96.3961,3.332,1111122 
TCOON,ioos:station:TCOON:057:1,2013-12-15T22:12:00Z,28.4460,-96.3961,3.348,1111122 
TCOON,ioos:station:TCOON:057:1,2013-12-15T22:48:00Z,28.4460,-96.3961,3.379,1111122 
TCOON,ioos:station:TCOON:057:1,2013-12-15T23:12:00Z,28.4460,-96.3961,3.396,1111122 
TCOON,ioos:station:TCOON:057:1,2013-12-15T23:48:00Z,28.4460,-96.3961,3.402,1111122 
TCOON,ioos:station:TCOON:057:1,2013-12-16T00:18:00Z,28.4460,-96.3961,3.417,1111122 
TCOON,ioos:station:TCOON:057:1,2013-12-16T00:48:00Z,28.4460,-96.3961,3.44,1111122 
TCOON,ioos:station:TCOON:057:1,2013-12-16T01:18:00Z,28.4460,-96.3961,3.449,1111122 
TCOON,ioos:station:TCOON:057:1,2013-12-16T01:48:00Z,28.4460,-96.3961,3.453,1111122 
TCOON,ioos:station:TCOON:057:1,2013-12-16T02:18:00Z,28.4460,-96.3961,3.468,1111122 
TCOON,ioos:station:TCOON:057:1,2013-12-16T02:48:00Z,28.4460,-96.3961,3.474,1111122 
TCOON,ioos:station:TCOON:057:1,2013-12-16T03:18:00Z,28.4460,-96.3961,3.479,1111122 
TCOON,ioos:station:TCOON:057:1,2013-12-16T03:48:00Z,28.4460,-96.3961,3.484,1111122 
TCOON,ioos:station:TCOON:057:1,2013-12-16T04:18:00Z,28.4460,-96.3961,3.494,1111122 
TCOON,ioos:station:TCOON:057:1,2013-12-16T04:48:00Z,28.4460,-96.3961,3.504,1111122 
TCOON,ioos:station:TCOON:057:1,2013-12-16T05:18:00Z,28.4460,-96.3961,3.504,1111122 
TCOON,ioos:station:TCOON:057:1,2013-12-16T05:48:00Z,28.4460,-96.3961,3.507,1111122 
TCOON,ioos:station:TCOON:057:1,2013-12-16T06:18:00Z,28.4460,-96.3961,3.508,1111122 
TCOON,ioos:station:TCOON:057:1,2013-12-16T06:48:00Z,28.4460,-96.3961,3.517,1111122 
TCOON,ioos:station:TCOON:057:1,2013-12-16T07:18:00Z,28.4460,-96.3961,3.501,1111122 
TCOON,ioos:station:TCOON:057:1,2013-12-16T07:48:00Z,28.4460,-96.3961,3.505,1111122 
TCOON,ioos:station:TCOON:057:1,2013-12-16T08:18:00Z,28.4460,-96.3961,3.496,1111122 
TCOON,ioos:station:TCOON:057:1,2013-12-16T08:48:00Z,28.4460,-96.3961,3.48,1111122 
TCOON,ioos:station:TCOON:057:1,2013-12-16T09:18:00Z,28.4460,-96.3961,3.464,1111122 
TCOON,ioos:station:TCOON:057:1,2013-12-16T09:48:00Z,28.4460,-96.3961,3.455,1111122 
TCOON,ioos:station:TCOON:057:1,2013-12-16T10:18:00Z,28.4460,-96.3961,3.449,1111122 
TCOON,ioos:station:TCOON:057:1,2013-12-16T10:48:00Z,28.4460,-96.3961,3.434,1111122 
TCOON,ioos:station:TCOON:057:1,2013-12-16T11:18:00Z,28.4460,-96.3961,3.413,1111122 
TCOON,ioos:station:TCOON:057:1,2013-12-16T11:48:00Z,28.4460,-96.3961,3.399,1111122 
TCOON,ioos:station:TCOON:057:1,2013-12-16T12:18:00Z,28.4460,-96.3961,3.383,1111122 
TCOON,ioos:station:TCOON:057:1,2013-12-16T12:48:00Z,28.4460,-96.3961,3.363,1111122 
TCOON,ioos:station:TCOON:057:1,2013-12-16T13:18:00Z,28.4460,-96.3961,3.349,1111122 
TCOON,ioos:station:TCOON:057:1,2013-12-16T13:48:00Z,28.4460,-96.3961,3.336,1111122 
TCOON,ioos:station:TCOON:057:1,2013-12-16T14:18:00Z,28.4460,-96.3961,3.322,1111122 
TCOON,ioos:station:TCOON:057:1,2013-12-16T14:48:00Z,28.4460,-96.3961,3.3,1111122 
TCOON,ioos:station:TCOON:057:1,2013-12-16T15:18:00Z,28.4460,-96.3961,3.285,1111122 
TCOON,ioos:station:TCOON:057:1,2013-12-16T15:48:00Z,28.4460,-96.3961,3.268,1111122 
TCOON,ioos:station:TCOON:057:1,2013-12-16T16:18:00Z,28.4460,-96.3961,3.271,1111122 
TCOON,ioos:station:TCOON:057:1,2013-12-16T16:48:00Z,28.4460,-96.3961,3.272,1111122 
TCOON,ioos:station:TCOON:057:1,2013-12-16T17:18:00Z,28.4460,-96.3961,3.26,1111122 
TCOON,ioos:station:TCOON:057:1,2013-12-16T17:48:00Z,28.4460,-96.3961,3.259,1111122 
TCOON,ioos:station:TCOON:057:1,2013-12-16T18:18:00Z,28.4460,-96.3961,3.254,1111122 
TCOON,ioos:station:TCOON:057:1,2013-12-16T18:48:00Z,28.4460,-96.3961,3.266,1111122 
TCOON,ioos:station:TCOON:057:1,2013-12-16T19:18:00Z,28.4460,-96.3961,3.296,1111122 
TCOON,ioos:station:TCOON:057:1,2013-12-16T19:48:00Z,28.4460,-96.3961,3.331,1111122 
TCOON,ioos:station:TCOON:057:1,2013-12-16T20:18:00Z,28.4460,-96.3961,3.353,1111122 
TCOON,ioos:station:TCOON:057:1,2013-12-16T20:48:00Z,28.4460,-96.3961,3.366,1111122 
TCOON,ioos:station:TCOON:057:1,2013-12-16T21:18:00Z,28.4460,-96.3961,3.39,1111122 
TCOON,ioos:station:TCOON:057:1,2013-12-16T21:48:00Z,28.4460,-96.3961,3.412,1111122 
TCOON,ioos:station:TCOON:057:1,2013-12-16T22:18:00Z,28.4460,-96.3961,3.437,1111122 
TCOON,ioos:station:TCOON:057:1,2013-12-16T22:48:00Z,28.4460,-96.3961,3.457,1111122 
TCOON,ioos:station:TCOON:057:1,2013-12-16T23:18:00Z,28.4460,-96.3961,3.475,1111122 
TCOON,ioos:station:TCOON:057:1,2013-12-16T23:48:00Z,28.4460,-96.3961,3.495,1111122 
TCOON,ioos:station:TCOON:057:1,2013-12-17T00:18:00Z,28.4460,-96.3961,3.503,1111122 
TCOON,ioos:station:TCOON:057:1,2013-12-17T00:48:00Z,28.4460,-96.3961,3.52,1111122 
TCOON,ioos:station:TCOON:057:1,2013-12-17T01:18:00Z,28.4460,-96.3961,3.542,1111122 
TCOON,ioos:station:TCOON:057:1,2013-12-17T01:48:00Z,28.4460,-96.3961,3.556,1111122 
TCOON,ioos:station:TCOON:057:1,2013-12-17T02:18:00Z,28.4460,-96.3961,3.572,1111122 
TCOON,ioos:station:TCOON:057:1,2013-12-17T02:48:00Z,28.4460,-96.3961,3.585,1111122 
TCOON,ioos:station:TCOON:057:1,2013-12-17T03:18:00Z,28.4460,-96.3961,3.595,1111122 
TCOON,ioos:station:TCOON:057:1,2013-12-17T03:48:00Z,28.4460,-96.3961,3.598,1111122 
TCOON,ioos:station:TCOON:057:1,2013-12-17T04:18:00Z,28.4460,-96.3961,3.609,1111122 
TCOON,ioos:station:TCOON:057:1,2013-12-17T04:48:00Z,28.4460,-96.3961,3.615,1111122 
TCOON,ioos:station:TCOON:057:1,2013-12-17T05:18:00Z,28.4460,-96.3961,3.617,1111122 
TCOON,ioos:station:TCOON:057:1,2013-12-17T05:48:00Z,28.4460,-96.3961,3.623,1111122 
TCOON,ioos:station:TCOON:057:1,2013-12-17T06:18:00Z,28.4460,-96.3961,3.623,1111122 
TCOON,ioos:station:TCOON:057:1,2013-12-17T06:48:00Z,28.4460,-96.3961,3.625,1111122 
TCOON,ioos:station:TCOON:057:1,2013-12-17T07:18:00Z,28.4460,-96.3961,3.622,1111122 
TCOON,ioos:station:TCOON:057:1,2013-12-17T07:48:00Z,28.4460,-96.3961,3.616,1111122 
TCOON,ioos:station:TCOON:057:1,2013-12-17T08:18:00Z,28.4460,-96.3961,3.602,1111122 
TCOON,ioos:station:TCOON:057:1,2013-12-17T08:48:00Z,28.4460,-96.3961,3.598,1111122 
TCOON,ioos:station:TCOON:057:1,2013-12-17T09:18:00Z,28.4460,-96.3961,3.578,1111122 
TCOON,ioos:station:TCOON:057:1,2013-12-17T09:48:00Z,28.4460,-96.3961,3.559,1111122 
TCOON,ioos:station:TCOON:057:1,2013-12-17T10:18:00Z,28.4460,-96.3961,3.547,1111122 
TCOON,ioos:station:TCOON:057:1,2013-12-17T10:48:00Z,28.4460,-96.3961,3.527,1111122 
TCOON,ioos:station:TCOON:057:1,2013-12-17T11:18:00Z,28.4460,-96.3961,3.501,1111122 
TCOON,ioos:station:TCOON:057:1,2013-12-17T11:48:00Z,28.4460,-96.3961,3.489,1111122 
TCOON,ioos:station:TCOON:057:1,2013-12-17T12:18:00Z,28.4460,-96.3961,3.469,1111122 
TCOON,ioos:station:TCOON:057:1,2013-12-17T12:48:00Z,28.4460,-96.3961,3.451,1111122 
TCOON,ioos:station:TCOON:057:1,2013-12-17T13:18:00Z,28.4460,-96.3961,3.442,1111122 
TCOON,ioos:station:TCOON:057:1,2013-12-17T13:48:00Z,28.4460,-96.3961,3.426,1111122 
TCOON,ioos:station:TCOON:057:1,2013-12-17T14:18:00Z,28.4460,-96.3961,3.404,1111122 
TCOON,ioos:station:TCOON:057:1,2013-12-17T14:48:00Z,28.4460,-96.3961,3.383,1111122 
TCOON,ioos:station:TCOON:057:1,2013-12-17T15:18:00Z,28.4460,-96.3961,3.367,1111122 
TCOON,ioos:station:TCOON:057:1,2013-12-17T15:48:00Z,28.4460,-96.3961,3.353,1111122 
TCOON,ioos:station:TCOON:057:1,2013-12-17T16:24:00Z,28.4460,-96.3961,3.337,1111122 
TCOON,ioos:station:TCOON:057:1,2013-12-17T16:48:00Z,28.4460,-96.3961,3.325,1111122 
TCOON,ioos:station:TCOON:057:1,2013-12-17T17:18:00Z,28.4460,-96.3961,3.31,1111122 
TCOON,ioos:station:TCOON:057:1,2013-12-17T17:48:00Z,28.4460,-96.3961,3.298,1111122 
TCOON,ioos:station:TCOON:057:1,2013-12-17T18:18:00Z,28.4460,-96.3961,3.309,1111122 
TCOON,ioos:station:TCOON:057:1,2013-12-17T18:48:00Z,28.4460,-96.3961,3.315,1111122 
TCOON,ioos:station:TCOON:057:1,2013-12-17T19:24:00Z,28.4460,-96.3961,3.334,1111122 
TCOON,ioos:station:TCOON:057:1,2013-12-17T19:48:00Z,28.4460,-96.3961,3.352,1111122 
TCOON,ioos:station:TCOON:057:1,2013-12-17T20:24:00Z,28.4460,-96.3961,3.379,1111122 
TCOON,ioos:station:TCOON:057:1,2013-12-17T20:54:00Z,28.4460,-96.3961,3.394,1111122 
TCOON,ioos:station:TCOON:057:1,2013-12-17T21:48:00Z,28.4460,-96.3961,3.446,1111122 
TCOON,ioos:station:TCOON:057:1,2013-12-17T22:24:00Z,28.4460,-96.3961,3.454,1111122 
TCOON,ioos:station:TCOON:057:1,2013-12-17T23:24:00Z,28.4460,-96.3961,3.497,1111122 
TCOON,ioos:station:TCOON:057:1,2013-12-18T00:18:00Z,28.4460,-96.3961,3.533,1111122 
TCOON,ioos:station:TCOON:057:1,2013-12-18T00:48:00Z,28.4460,-96.3961,3.548,1111122 
TCOON,ioos:station:TCOON:057:1,2013-12-18T01:18:00Z,28.4460,-96.3961,3.567,1111122 
TCOON,ioos:station:TCOON:057:1,2013-12-18T01:48:00Z,28.4460,-96.3961,3.582,1111122 
TCOON,ioos:station:TCOON:057:1,2013-12-18T02:18:00Z,28.4460,-96.3961,3.598,1111122 
TCOON,ioos:station:TCOON:057:1,2013-12-18T02:48:00Z,28.4460,-96.3961,3.606,1111122 
TCOON,ioos:station:TCOON:057:1,2013-12-18T03:18:00Z,28.4460,-96.3961,3.611,1111122 
TCOON,ioos:station:TCOON:057:1,2013-12-18T03:48:00Z,28.4460,-96.3961,3.614,1111122 
TCOON,ioos:station:TCOON:057:1,2013-12-18T04:18:00Z,28.4460,-96.3961,3.626,1111122 
TCOON,ioos:station:TCOON:057:1,2013-12-18T04:48:00Z,28.4460,-96.3961,3.629,1111122 
TCOON,ioos:station:TCOON:057:1,2013-12-18T05:48:00Z,28.4460,-96.3961,3.635,1111122 
TCOON,ioos:station:TCOON:057:1,2013-12-18T06:18:00Z,28.4460,-96.3961,3.631,1111122 
TCOON,ioos:station:TCOON:057:1,2013-12-18T06:48:00Z,28.4460,-96.3961,3.629,1111122 
TCOON,ioos:station:TCOON:057:1,2013-12-18T07:18:00Z,28.4460,-96.3961,3.627,1111122 
TCOON,ioos:station:TCOON:057:1,2013-12-18T07:48:00Z,28.4460,-96.3961,3.618,1111122 
TCOON,ioos:station:TCOON:057:1,2013-12-18T08:18:00Z,28.4460,-96.3961,3.607,1111122 
TCOON,ioos:station:TCOON:057:1,2013-12-18T08:48:00Z,28.4460,-96.3961,3.599,1111122 
TCOON,ioos:station:TCOON:057:1,2013-12-18T09:18:00Z,28.4460,-96.3961,3.588,1111122 
TCOON,ioos:station:TCOON:057:1,2013-12-18T09:48:00Z,28.4460,-96.3961,3.571,1111122 
TCOON,ioos:station:TCOON:057:1,2013-12-18T10:18:00Z,28.4460,-96.3961,3.559,1111122 
TCOON,ioos:station:TCOON:057:1,2013-12-18T10:48:00Z,28.4460,-96.3961,3.546,1111122 
TCOON,ioos:station:TCOON:057:1,2013-12-18T11:18:00Z,28.4460,-96.3961,3.522,1111122 
TCOON,ioos:station:TCOON:057:1,2013-12-18T11:48:00Z,28.4460,-96.3961,3.503,1111122 
TCOON,ioos:station:TCOON:057:1,2013-12-18T12:18:00Z,28.4460,-96.3961,3.487,1111122 
TCOON,ioos:station:TCOON:057:1,2013-12-18T12:48:00Z,28.4460,-96.3961,3.466,1111122 
TCOON,ioos:station:TCOON:057:1,2013-12-18T13:18:00Z,28.4460,-96.3961,3.444,1111122 